Terminal Aerodrome Forecast
Issued by NWS Charleston, WV

Current Version | Previous Version | Text Only | Print | Product List | Glossary Off
Versions: 1 2 3 4 5 6 7 8 9 10 11 12 13 14 15 16 17 18 19 20 21 22 23 24 25 26 27

000
FTUS41 KRLX 182322
TAFBKW
TAF
KBKW 182322Z 1900/1924 00000KT P6SM OVC070
     FM190400 00000KT 6SM -SHRA OVC028
     FM190700 VRB03KT P6SM OVC008
     FM191200 VRB03KT P6SM OVC014
     FM191800 32006KT P6SM BKN022
     FM192000 31006KT P6SM SCT027=

USA.gov is the U.S. government's official web portal to all federal, state and local government web resources and services.